Location: Étang Rond
(42.7927°N, 1.0661°E)
Time: 23:25:21
(UTC+00:00)

IRS-1D - Pass Details

Date: 08 November 2025
Orbit: 736 x 811 km, 98.8° (Epoch: 13 December)

Event Time Altitude Azimuth Distance (km) Brightness Sun altitude
Rises 04:35:00 0° 18° (NNE) 3,204 6.9 -22.9°
Reaches altitude 10° 04:37:21 10° 22° (NNE) 2,267 6.2 -22.5°
Maximum altitude 04:42:14 57° 101° (E) 868 4.0 -21.6°
Drops below altitude 10° 04:47:03 10° 180° (S) 2,233 5.9 -20.7°
Sets 04:49:21 0° 185° (S) 3,151 6.7 -20.3°
